EN

Hourly Weather Cartí Tupile

Today, 16 April, Friday

Time Temperature Precipitation Wind Pressure Humidity
00:00 +26°C° 0.6 mm 1 mps 751 mmHg 97%
01:00 +26°C° 0.6 mm 1 mps 751 mmHg 97%
02:00 +26°C° 2.3 mm 1 mps 751 mmHg 97%
03:00 +25°C° 2.3 mm 1 mps 751 mmHg 97%
04:00 +25°C° 2.3 mm 1 mps 750 mmHg 96%
05:00 +25°C° 1.7 mm 1 mps 751 mmHg 97%
06:00 +26°C° 1.7 mm 1 mps 751 mmHg 97%
07:00 +26°C° 1.7 mm 1 mps 751 mmHg 97%
08:00 +27°C° 0.7 mm 1 mps 752 mmHg 93%
09:00 +28°C° 0.7 mm 1 mps 752 mmHg 90%
10:00 +29°C° 0.7 mm 2 mps 752 mmHg 86%
11:00 +29°C° 1.5 mm 2 mps 752 mmHg 84%
12:00 +29°C° 1.5 mm 2 mps 751 mmHg 83%
13:00 +30°C° 1.5 mm 2 mps 751 mmHg 81%
14:00 +29°C° 6.9 mm 2 mps 750 mmHg 85%
15:00 +28°C° 6.9 mm 2 mps 750 mmHg 90%
16:00 +26°C° 6.9 mm 2 mps 750 mmHg 94%
17:00 +26°C° 13.1 mm 2 mps 750 mmHg 95%
18:00 +26°C° 13.1 mm 2 mps 751 mmHg 96%
19:00 +25°C° 13.1 mm 2 mps 752 mmHg 97%
20:00 +25°C° 0.9 mm 2 mps 752 mmHg 96%
21:00 +25°C° 0.9 mm 2 mps 753 mmHg 96%
22:00 +25°C° 0.9 mm 2 mps 753 mmHg 95%
23:00 +25°C° 0 mm 1 mps 753 mmHg 96%

Tomorrow, 17 April, Saturday

Time Temperature Precipitation Wind Pressure Humidity
00:00 +25°C° 0 mm 1 mps 752 mmHg 96%
01:00 +25°C° 0 mm 1 mps 752 mmHg 96%
02:00 +25°C° 0 mm 1 mps 752 mmHg 96%
03:00 +25°C° 0 mm 1 mps 752 mmHg 96%
04:00 +25°C° 0 mm 1 mps 751 mmHg 96%
05:00 +25°C° 0 mm 1 mps 752 mmHg 96%
06:00 +25°C° 0 mm 1 mps 752 mmHg 95%
07:00 +25°C° 0 mm 1 mps 753 mmHg 94%
08:00 +27°C° 0 mm 1 mps 753 mmHg 89%
09:00 +28°C° 0 mm 2 mps 753 mmHg 83%
10:00 +29°C° 0 mm 2 mps 754 mmHg 78%
11:00 +29°C° 0.2 mm 2 mps 753 mmHg 76%
12:00 +30°C° 0.2 mm 2 mps 753 mmHg 75%
13:00 +30°C° 0.2 mm 2 mps 752 mmHg 73%
14:00 +30°C° 0.3 mm 2 mps 752 mmHg 75%
15:00 +29°C° 0.3 mm 2 mps 751 mmHg 76%
16:00 +29°C° 0.3 mm 1 mps 751 mmHg 78%
17:00 +28°C° 0.1 mm 1 mps 751 mmHg 82%
18:00 +27°C° 0.1 mm 1 mps 751 mmHg 86%
19:00 +26°C° 0.1 mm 1 mps 752 mmHg 89%
20:00 +26°C° 0 mm 1 mps 752 mmHg 90%
21:00 +24°C° 0 mm 0 mps 753 mmHg 90%
22:00 +24°C° 0 mm 0 mps 753 mmHg 90%
23:00 +26°C° 0 mm 1 mps 753 mmHg 90%

Day after tomorrow, 18 April, Sunday

Time Temperature Precipitation Wind Pressure Humidity
00:00 +25°C° 0 mm 1 mps 753 mmHg 91%
01:00 +25°C° 0 mm 1 mps 753 mmHg 91%
02:00 +25°C° 0 mm 1 mps 752 mmHg 92%
03:00 +23°C° 0 mm 0 mps 752 mmHg 93%
04:00 +23°C° 0 mm 0 mps 752 mmHg 93%
05:00 +23°C° 0 mm 0 mps 752 mmHg 92%
06:00 +23°C° 0 mm 0 mps 752 mmHg 91%
07:00 +24°C° 0 mm 0 mps 753 mmHg 90%
08:00 +28°C° 0 mm 1 mps 753 mmHg 81%
09:00 +29°C° 0 mm 1 mps 754 mmHg 73%
10:00 +31°C° 0 mm 1 mps 754 mmHg 64%
11:00 +31°C° 0.3 mm 2 mps 753 mmHg 65%
12:00 +31°C° 0.3 mm 2 mps 753 mmHg 66%
13:00 +32°C° 0.3 mm 2 mps 752 mmHg 67%
14:00 +31°C° 0.7 mm 2 mps 752 mmHg 68%
15:00 +31°C° 0.7 mm 1 mps 751 mmHg 68%
16:00 +31°C° 0.7 mm 1 mps 751 mmHg 69%
17:00 +30°C° 0.2 mm 1 mps 751 mmHg 75%
18:00 +28°C° 0.2 mm 1 mps 751 mmHg 81%
19:00 +27°C° 0.2 mm 1 mps 752 mmHg 87%
20:00 +27°C° 0 mm 1 mps 752 mmHg 89%
21:00 +27°C° 0 mm 1 mps 753 mmHg 90%
22:00 +26°C° 0 mm 1 mps 753 mmHg 91%
23:00 +24°C° 0 mm 0 mps 753 mmHg 92%

19 April, Monday

Time Temperature Precipitation Wind Pressure Humidity
00:00 +24°C° 0 mm 0 mps 752 mmHg 93%
01:00 +24°C° 0 mm 0 mps 752 mmHg 94%
02:00 +24°C° 0 mm 0 mps 752 mmHg 94%
03:00 +24°C° 0 mm 0 mps 752 mmHg 95%
04:00 +23°C° 0 mm 0 mps 752 mmHg 95%
05:00 +24°C° 0 mm 0 mps 752 mmHg 94%
06:00 +24°C° 0 mm 0 mps 752 mmHg 93%
07:00 +24°C° 0 mm 0 mps 753 mmHg 92%
08:00 +26°C° 0.1 mm 0 mps 753 mmHg 84%
09:00 +28°C° 0.1 mm 0 mps 753 mmHg 76%
10:00 +30°C° 0.1 mm 0 mps 753 mmHg 68%
11:00 +32°C° 1.2 mm 1 mps 753 mmHg 69%
12:00 +32°C° 1.2 mm 1 mps 752 mmHg 71%
13:00 +31°C° 1.2 mm 1 mps 752 mmHg 72%
14:00 +31°C° 1.7 mm 1 mps 751 mmHg 75%
15:00 +31°C° 1.7 mm 1 mps 751 mmHg 77%
16:00 +30°C° 1.7 mm 1 mps 750 mmHg 79%
17:00 +29°C° 1.1 mm 1 mps 751 mmHg 83%
18:00 +28°C° 1.1 mm 1 mps 751 mmHg 87%
19:00 +27°C° 1.1 mm 1 mps 751 mmHg 92%
20:00 +27°C° 0 mm 1 mps 752 mmHg 92%
21:00 +27°C° 0 mm 1 mps 752 mmHg 93%
22:00 +26°C° 0 mm 1 mps 752 mmHg 93%
23:00 +26°C° 0 mm 1 mps 752 mmHg 94%

20 April, Tuesday

Time Temperature Precipitation Wind Pressure Humidity
00:00 +26°C° 0 mm 1 mps 752 mmHg 94%
01:00 +26°C° 0 mm 1 mps 752 mmHg 95%
02:00 +26°C° 0.3 mm 1 mps 751 mmHg 95%
03:00 +26°C° 0.3 mm 1 mps 751 mmHg 95%
04:00 +25°C° 0.3 mm 1 mps 751 mmHg 96%
05:00 +24°C° 0.3 mm 0 mps 752 mmHg 95%
06:00 +24°C° 0.3 mm 0 mps 752 mmHg 95%
07:00 +24°C° 0.3 mm 0 mps 752 mmHg 94%
08:00 +26°C° 0.7 mm 0 mps 753 mmHg 88%
09:00 +27°C° 0.7 mm 0 mps 753 mmHg 81%
10:00 +29°C° 0.7 mm 0 mps 753 mmHg 75%
11:00 +31°C° 1.2 mm 1 mps 753 mmHg 74%
12:00 +31°C° 1.2 mm 1 mps 752 mmHg 74%
13:00 +31°C° 1.2 mm 1 mps 752 mmHg 74%
14:00 +31°C° 1.1 mm 1 mps 751 mmHg 76%
15:00 +31°C° 1.1 mm 1 mps 751 mmHg 77%
16:00 +30°C° 1.1 mm 1 mps 750 mmHg 78%
17:00 +29°C° 0.4 mm 1 mps 751 mmHg 83%
18:00 +28°C° 0.4 mm 1 mps 751 mmHg 87%
19:00 +27°C° 0.4 mm 1 mps 751 mmHg 92%
20:00 +27°C° 0 mm 1 mps 752 mmHg 92%
21:00 +27°C° 0 mm 1 mps 752 mmHg 93%
22:00 +26°C° 0 mm 1 mps 753 mmHg 94%
23:00 +26°C° 0.1 mm 1 mps 752 mmHg 94%

21 April, Wednesday

Time Temperature Precipitation Wind Pressure Humidity
00:00 +26°C° 0.1 mm 1 mps 752 mmHg 95%
01:00 +26°C° 0.1 mm 1 mps 752 mmHg 96%
02:00 +26°C° 0.1 mm 1 mps 752 mmHg 96%
03:00 +26°C° 0.1 mm 1 mps 752 mmHg 96%
04:00 +25°C° 0.1 mm 1 mps 752 mmHg 96%
05:00 +26°C° 0.5 mm 1 mps 752 mmHg 96%
06:00 +26°C° 0.5 mm 1 mps 752 mmHg 95%
07:00 +24°C° 0.5 mm 0 mps 753 mmHg 94%
08:00 +27°C° 0.9 mm 1 mps 753 mmHg 88%
09:00 +29°C° 0.9 mm 1 mps 753 mmHg 82%
10:00 +30°C° 0.9 mm 1 mps 754 mmHg 76%
11:00 +31°C° 1.3 mm 1 mps 753 mmHg 74%
12:00 +31°C° 1.3 mm 1 mps 753 mmHg 73%
13:00 +32°C° 1.3 mm 1 mps 752 mmHg 71%
14:00 +31°C° 1.5 mm 1 mps 752 mmHg 74%
15:00 +30°C° 1.5 mm 1 mps 751 mmHg 77%
16:00 +30°C° 1.5 mm 2 mps 751 mmHg 80%
17:00 +29°C° 0.6 mm 1 mps 751 mmHg 85%
18:00 +28°C° 0.6 mm 1 mps 751 mmHg 89%
19:00 +27°C° 0.6 mm 1 mps 751 mmHg 93%
20:00 +27°C° 0.1 mm 1 mps 752 mmHg 94%
21:00 +26°C° 0.1 mm 1 mps 753 mmHg 95%
22:00 +26°C° 0.1 mm 1 mps 753 mmHg 95%
23:00 +26°C° 0 mm 1 mps 753 mmHg 95%
Show more

We Need Your Consent

Meteoprog and our Service Providers may store and access personal data such as cookies, device identifiers or other similar technologies on your device and process such data to personalise content and ads, as well as provide social media features and to analyse the traffic.

  • Store and/or access information on your device

    Cookies, device identifiers or other information can be stored or accessed on your device for the purposes indicated above.

  • Personalised ads and content, ad and content measurement, audience insights, and products development

    Ads and content can be personalised based on a profile. More data can be added to better personalise ads and content. Ad and content performance can be measured. Insights about the audience who saw the ads and content can be derived. Such data can be used to develop or improve user’s experience, systems and software.

By clicking ‘I Agree’ you will allow the use of indicated cookies, device identifiers, web beacons or other similar technologies. Your settings can be changed in the browser on your device.

For certain purposes, legitimate interests may be relied on, rather than consent. You can read more about this in our Privacy and Cookie Policy.